Ely, VT

10:58 PM EST on November 11, 2019 (GMT -0500)
Lake Fairlee | | Change Station
Active Advisory: Winter Weather Advisory Active Notice: Public Information Statement

Elev 689 ft 43.90 °N, 72.21 °W | Updated 12 minutes ago

Overcast
Overcast
29.5 °F
Feels Like 30 °F
N
0
Wind Variable Wind from NE
Gusts 0.0 mph

Today
High -- | Low -- °F
--% Chance of Precip.
Yesterday
High -- | Low -- °F
Precip. -- in
Pressure 29.97 in
Visibility 4.0 miles
Clouds Overcast 300 ft
Windchill 30 °F
Dew Point 27 °F
Humidity 91%
Rainfall 0.00 in
Snow Depth Not available.
6:37 AM 4:27 PM
Full, 100% visible
METAR KLEB 120353Z AUTO 00000KT 4SM BR OVC003 M01/M03 A2995 RMK AO2 CIG 001V006 SLP149 T10061028
Pressure 29.97 in
Visibility 4.0 miles
Clouds Overcast 300 ft
Windchill 30 °F
Dew Point 27 °F
Humidity 91%
Rainfall 0.00 in
Snow Depth Not available.
6:37 AM 4:27 PM
Full, 100% visible
METAR KLEB 120353Z AUTO 00000KT 4SM BR OVC003 M01/M03 A2995 RMK AO2 CIG 001V006 SLP149 T10061028

Get Your Daily Forecast Email!

Thanks for signing up!

Be on the lookout for a verification email in your inbox.

You'll start receiving severe weather alerts in your inbox..

×

10-Day Weather Forecast

Almanac

Astronomy

Nov. 11, 2019 Rise Set
Actual Time
Civil Twilight
Nautical Twilight
Astronomical Twilight
Moon
Length of Visible Light
Length of Day
Tomorrow will be .
, % of the Moon is Illuminated

Today's Extremes

State Highs State Lows

Community

WunderPhotos

Category 6

Welcome to Category 6. This is the collective home for Weather Underground's featured writeups by Dr. Jeff Masters (right), Bob Henson (left), Chris Burt, and other regular contributors.

Nearby

Air Quality

  Air Quality AQ Index Pollutant
Not available.

Snow Depth

Station Depth Elevation

Earthquake Activity

City Distance Mag. Time & Date
Minimum magnitude displayed is 2.5.

Coastal Water Temperatures

Place Temperature

Stations

Nearby Weather Stations

Station Location Temp. Windchill Dew Point Humidity Wind Precip. Elev Updated Type
                   

Watches & Warnings

Winter Weather Advisory
Issued: 2:56 PM EST Nov. 11, 2019 – National Weather Service

... Winter Weather Advisory remains in effect until 1 PM EST
Tuesday...

* what... mixed precipitation expected. Total snow accumulations of
2 to 6 inches and ice accumulations less than a tenth of an inch.

* Where... most of central and southern Vermont.

* When... until 1 PM EST Tuesday.

* Impacts... travel could be very difficult.

* Additional details... a mix of sleet and freezing rain tonight,
followed by moderate to locally heavy snow Tuesday morning.
The Tuesday morning commute will be impacted.

Precautionary/preparedness actions...

Slow down and use caution while traveling.

Please allow extra time if travel is necessary.